DLH528 EDDF-EDDL

Flight info

Callsign DLH528
Flight time 0h 24m
Altitude 24000
Route MARUN3W MARUN Y152 ARPEG Z850 ADEMI T854 DOMUX DOMUX1A
Aircraft A320/M-SDE3FGHIRWY/LB1

Departure

Time 2026-04-16 13:43
Airport Frankfurt Main Airport (EDDF)

Arrival

Time 2026-04-16 14:08
Airport Düsseldorf Airport (EDDL)
Time Latitude Longitude Altitude Speed Heading
2026-04-16 13:43 50.34081 8.43166 22819 ft 404 kts 14°
2026-04-16 13:43 50.36749 8.44626 23437 ft 408 kts 14°
2026-04-16 13:44 50.39443 8.46109 23957 ft 411 kts 14°
2026-04-16 13:44 50.42151 8.47605 24172 ft 413 kts 14°
2026-04-16 13:44 50.44867 8.49109 24228 ft 413 kts 14°
2026-04-16 13:44 50.47582 8.50604 24234 ft 413 kts 14°
2026-04-16 13:45 50.50318 8.52025 24233 ft 412 kts 12°
2026-04-16 13:45 50.53023 8.53332 24233 ft 412 kts 12°
2026-04-16 13:45 50.55774 8.54609 24234 ft 411 kts 11°
2026-04-16 13:45 50.58525 8.55871 24237 ft 411 kts 11°
2026-04-16 13:46 50.61272 8.57141 24232 ft 411 kts 11°
2026-04-16 13:46 50.64015 8.58429 24231 ft 411 kts 11°
2026-04-16 13:46 50.66749 8.59738 24231 ft 411 kts 12°
2026-04-16 13:46 50.69447 8.61045 24229 ft 411 kts 12°
2026-04-16 13:47 50.72181 8.62372 24225 ft 410 kts 12°
2026-04-16 13:47 50.74921 8.63675 24225 ft 408 kts
2026-04-16 13:47 50.77705 8.64275 24224 ft 400 kts 355°
2026-04-16 13:47 50.80439 8.63875 24223 ft 392 kts 343°
2026-04-16 13:48 50.83013 8.62560 24223 ft 385 kts 331°
2026-04-16 13:48 50.85311 8.60440 24222 ft 380 kts 320°
2026-04-16 13:48 50.87223 8.57679 24220 ft 376 kts 309°
2026-04-16 13:48 50.88919 8.54520 24219 ft 376 kts 308°
2026-04-16 13:49 50.90615 8.51359 24216 ft 376 kts 308°
2026-04-16 13:49 50.92311 8.48199 24210 ft 376 kts 308°
2026-04-16 13:49 50.94006 8.45036 24210 ft 376 kts 308°
2026-04-16 13:49 50.95705 8.41863 24214 ft 376 kts 308°
2026-04-16 13:50 50.97396 8.38689 24213 ft 376 kts 308°
2026-04-16 13:50 50.98514 8.36584 24214 ft 376 kts 308°
2026-04-16 13:50 51.00199 8.33407 24213 ft 376 kts 308°
2026-04-16 13:50 51.02445 8.29201 24197 ft 376 kts 309°
2026-04-16 13:51 51.03620 8.27092 23772 ft 377 kts 310°
2026-04-16 13:51 51.05401 8.24018 23079 ft 375 kts 311°
2026-04-16 13:51 51.07156 8.21064 22602 ft 368 kts 311°
2026-04-16 13:51 51.08901 8.18142 22143 ft 361 kts 311°
2026-04-16 13:52 51.10611 8.15259 21683 ft 354 kts 311°
2026-04-16 13:52 51.12287 8.12410 21253 ft 348 kts 310°
2026-04-16 13:52 51.13925 8.09603 20828 ft 343 kts 310°
2026-04-16 13:52 51.15538 8.06823 20367 ft 339 kts 310°
2026-04-16 13:53 51.17133 8.04072 19929 ft 336 kts 310°
2026-04-16 13:53 51.18687 8.01385 19491 ft 333 kts 310°
2026-04-16 13:53 51.20251 7.98671 19038 ft 331 kts 310°
2026-04-16 13:53 51.21808 7.95968 18578 ft 330 kts 310°
2026-04-16 13:54 51.23353 7.93279 18083 ft 328 kts 310°
2026-04-16 13:54 51.24891 7.90600 17617 ft 325 kts 310°
2026-04-16 13:54 51.26415 7.87943 17156 ft 323 kts 310°
2026-04-16 13:54 51.27929 7.85306 16702 ft 321 kts 310°
2026-04-16 13:55 51.29412 7.82720 16251 ft 319 kts 310°
2026-04-16 13:55 51.30911 7.80109 15803 ft 317 kts 310°
2026-04-16 13:55 51.32403 7.77508 15359 ft 317 kts 310°
2026-04-16 13:55 51.33895 7.74905 14920 ft 317 kts 310°
2026-04-16 13:56 51.35383 7.72301 14467 ft 317 kts 310°
2026-04-16 13:56 51.36872 7.69695 14007 ft 317 kts 310°
2026-04-16 13:56 51.38339 7.67123 13519 ft 317 kts 310°
2026-04-16 13:56 51.39823 7.64518 13053 ft 315 kts 310°
2026-04-16 13:57 51.41301 7.61920 12582 ft 314 kts 310°
2026-04-16 13:57 51.42776 7.59325 12105 ft 314 kts 310°
2026-04-16 13:57 51.44244 7.56740 11628 ft 313 kts 310°
2026-04-16 13:58 51.47179 7.51571 10733 ft 310 kts 309°
2026-04-16 13:58 51.48587 7.49095 10585 ft 299 kts 309°
2026-04-16 13:58 51.49966 7.46664 10439 ft 289 kts 309°
2026-04-16 13:58 51.51303 7.44297 10209 ft 284 kts 309°
2026-04-16 13:59 51.52624 7.41954 10056 ft 282 kts 309°
2026-04-16 13:59 51.53935 7.39601 9866 ft 282 kts 306°
2026-04-16 13:59 51.54823 7.36826 9363 ft 278 kts 281°
2026-04-16 13:59 51.54921 7.33756 8827 ft 276 kts 258°
2026-04-16 14:00 51.54248 7.30947 8290 ft 267 kts 237°
2026-04-16 14:00 51.53171 7.28577 7569 ft 267 kts 233°
2026-04-16 14:00 51.52063 7.26217 6945 ft 262 kts 233°
2026-04-16 14:00 51.50971 7.23901 6301 ft 258 kts 233°
2026-04-16 14:01 51.49890 7.21604 5717 ft 256 kts 233°
2026-04-16 14:01 51.48818 7.19323 5108 ft 255 kts 233°
2026-04-16 14:01 51.47750 7.17051 4408 ft 254 kts 233°
2026-04-16 14:01 51.46706 7.14827 4195 ft 242 kts 234°
2026-04-16 14:02 51.45733 7.12759 4123 ft 227 kts 234°
2026-04-16 14:02 51.44809 7.10796 4061 ft 214 kts 234°
2026-04-16 14:02 51.43935 7.08941 3990 ft 204 kts 233°
2026-04-16 14:02 51.43079 7.07125 3901 ft 204 kts 234°
2026-04-16 14:03 51.42224 7.05314 3809 ft 203 kts 233°
2026-04-16 14:03 51.41372 7.03511 3721 ft 202 kts 234°
2026-04-16 14:03 51.40526 7.01717 3654 ft 202 kts 234°
2026-04-16 14:03 51.39686 6.99935 3474 ft 203 kts 234°
2026-04-16 14:04 51.38839 6.98142 3220 ft 200 kts 234°
2026-04-16 14:04 51.37997 6.96357 2959 ft 201 kts 234°
2026-04-16 14:04 51.37154 6.94574 2697 ft 201 kts 234°
2026-04-16 14:04 51.36317 6.92804 2415 ft 195 kts 233°
2026-04-16 14:05 51.35529 6.91141 2176 ft 179 kts 233°
2026-04-16 14:05 51.34805 6.89612 1917 ft 167 kts 233°
2026-04-16 14:05 51.34129 6.88186 1734 ft 151 kts 234°
2026-04-16 14:05 51.33523 6.86906 1520 ft 139 kts 233°
2026-04-16 14:06 51.32959 6.85718 1337 ft 131 kts 233°
2026-04-16 14:06 51.32415 6.84570 1151 ft 129 kts 233°
2026-04-16 14:06 51.31878 6.83435 994 ft 130 kts 232°
2026-04-16 14:06 51.31327 6.82284 818 ft 130 kts 232°
2026-04-16 14:07 51.30780 6.81131 669 ft 128 kts 235°
2026-04-16 14:07 51.30232 6.79981 500 ft 131 kts 234°
2026-04-16 14:07 51.29681 6.78831 293 ft 129 kts 236°
2026-04-16 14:07 51.29154 6.77687 160 ft 120 kts 230°
2026-04-16 14:08 51.28755 6.76860 158 ft 69 kts 233°
2026-04-16 14:08 51.28560 6.76451 155 ft 34 kts 232°
2026-04-16 14:08 51.28418 6.76156 154 ft 34 kts 231°
2026-04-16 14:08 51.28276 6.76040 157 ft 19 kts 182°
2026-04-16 14:09 51.28197 6.76079 156 ft 8 kts 147°
2026-04-16 14:09 51.28198 6.76173 156 ft 16 kts 56°
2026-04-16 14:09 51.28296 6.76376 158 ft 26 kts 56°
2026-04-16 14:09 51.28404 6.76603 156 ft 16 kts 52°
2026-04-16 14:10 51.28378 6.76711 156 ft 12 kts 135°
2026-04-16 14:10 51.28270 6.76836 156 ft 21 kts 147°
2026-04-16 14:10 51.28201 6.76845 156 ft 11 kts 186°
2026-04-16 14:10 51.28115 6.76823 156 ft 8 kts 194°
2026-04-16 14:11 51.28098 6.76783 156 ft 5 kts 285°
2026-04-16 14:11 51.28104 6.76731 156 ft 4 kts 278°
2026-04-16 14:11 51.28105 6.76716 156 ft 0 kts 277°